Location: Proctor
(47.8934°N, 114.3048°W)
Time: 22:53:06
(UTC+00:00)

Explorer 11/Cluster Stage 4 - All Passes

Search period start: 15 June 2024 00:00
Search period end: 25 June 2024 00:00
Orbit: 465 x 1217 km, 28.8° (Epoch: 15 June)

Date Brightness Start Highest point End Pass type
(mag) Time Alt. Az. Time Alt. Az. Time Alt. Az.
17 Jun - 06:42:13 10° S 06:43:15 10° S 06:44:15 10° SSE night (unlit)
17 Jun - 08:29:10 10° SSW 08:30:14 10° S 08:31:17 10° S night (unlit)
18 Jun - 06:23:10 10° SSW 06:25:25 12° S 06:27:34 10° SSE visible
18 Jun - 08:10:32 10° SSW 08:12:27 11° S 08:14:18 10° S night (unlit)
19 Jun - 06:04:34 10° SSW 06:07:35 13° S 06:10:25 10° SSE visible
19 Jun - 07:52:08 10° SSW 07:54:39 12° S 07:57:00 10° SSE night (unlit)
20 Jun - 05:46:07 10° SSW 05:49:41 14° S 05:53:02 10° SE visible
20 Jun - 07:33:50 10° SW 07:36:48 13° S 07:39:35 10° SSE visible
21 Jun - 05:27:46 10° SSW 05:31:47 15° S 05:35:33 10° SE visible
21 Jun - 07:15:35 10° SW 07:18:56 14° S 07:22:04 10° SSE visible
22 Jun - 03:25:30 10° SSE 03:26:36 10° SSE 03:27:41 10° SSE daylight
22 Jun - 05:09:29 10° SSW 05:13:50 16° S 05:17:58 10° SE visible
22 Jun - 06:57:24 10° SW 07:01:02 14° SSW 07:04:27 10° SSE visible
23 Jun - 03:06:31 10° S 03:08:37 11° SSE 03:10:41 10° SE daylight
23 Jun - 04:51:15 10° SSW 04:55:52 17° S 05:00:17 10° SE visible
23 Jun - 06:39:15 10° SW 06:43:07 15° SSW 06:46:45 10° SSE visible
24 Jun - 02:48:00 10° S 02:50:37 12° SSE 02:53:14 10° SE daylight
24 Jun - 04:33:06 10° SSW 04:37:53 17° S 04:42:32 10° SE visible
24 Jun - 06:21:08 10° SW 06:25:09 15° SSW 06:28:59 10° SSE visible
